Current Version              Previous Version:    01  02  03  04  05  06  07  08  09  10  11  12  13  14  15  16  17  18  19  20  21  22  23  24  25  26  27  28  29  30  
   31  32  33  34  35  36  37  38  39  40  41  42  43  44  45  46  47  48  49  50  51  52  53  54  55  56  57  58  59  60  

[Printable]
509
ASUS44 KFWD 281315
RWRTX
NORTH TEXAS HOURLY WEATHER ROUNDUP
NATIONAL WEATHER SERVICE FORT WORTH TX
700 AM CST FRI NOV 28 2014

NOTE: "FAIR" INDICATES FEW OR NO CLOUDS BELOW 12,000 FEET WITH NO
SIGNIFICANT WEATHER AND/OR OBSTRUCTIONS TO VISIBILITY.

TXZ118-119-281400-
DALLAS/FORT WORTH METROPLEX

CITY           SKY/WX    TMP DP  RH WIND       PRES   REMARKS
DFW AIRPORT    PTCLDY    41  31  67 S8        30.24F WCI  36
DALLAS LOVE    PTCLDY    42  31  64 SE9       30.26F WCI  37
FTW MEACHAM    CLEAR     45  33  63 S10       30.23F WCI  40
DAL-EXECUTIVE  FAIR      45  30  55 VRB5      30.25F
FTW-ALLIANCE   PTCLDY    39  30  70 CALM      30.23F
FTW-SPINKS     CLEAR     46  34  61 S8        30.27S
ARLINGTON      CLEAR     44  30  57 S8        30.25F WCI  39
ADDISON        CLEAR     43  30  61 SE10      30.26R WCI  37
MESQUITE       CLEAR     34  30  86 S6        30.29  WCI  29
LANCASTER      CLEAR     33  28  80 S5        30.29S WCI  29
$$

TXZ091>094-102>105-117-120-121-131>134-281400-
NORTH CENTRAL TEXAS

CITY           SKY/WX    TMP DP  RH WIND       PRES   REMARKS
SHRMAN/DENISON CLEAR     44  34  68 S12       30.24S WCI  38
BOWIE          CLEAR     41  31  68 S9        30.19F WCI  35
BRIDGEPORT     CLEAR     32  30  94 CALM      30.22F
DECATUR        CLEAR     46  31  56 S16       30.20F WCI  39
DENTON         CLEAR     39  31  72 S9        30.23F WCI  33
MCKINNEY       CLEAR     35  31  85 S8        30.25F WCI  29
GREENVILLE     CLEAR     37  32  81 S7        30.28S WCI  32
ROCKWALL       CLEAR     41  33  74 S12       30.26F WCI  34
TERRELL        CLEAR     41  33  73 S3        30.29S
WAXAHACHIE     CLEAR     40  32  74 SE7       30.28S WCI  35
CLEBURNE       CLEAR     39  34  81 S6        30.27S WCI  35
GRANBURY       CLEAR     37  32  81 CALM      30.26F
$$

TXZ083>090-098>101-113>116-127>130-139>142-154-155-281400-
WESTERN NORTH TEXAS

CITY           SKY/WX    TMP DP  RH WIND       PRES   REMARKS
WICHITA FALLS  CLEAR     40  32  73 S13       30.14F WCI  32
WF-KICKAPOO    CLEAR     37  31  81 S6        30.17F WCI  32
VERNON         PTCLDY    39  32  75 S8        30.13F WCI  34
ABILENE        CLEAR     48  37  65 S14       30.19F
ABILENE-DYESS  CLEAR     47  36  66 SW20      30.16F WCI  40
BRECKENRIDGE   CLEAR     46  35  63 S10       30.19S
GRAHAM         CLEAR     44  35  70 SE6       30.18F
MINERAL WELLS  CLEAR     39  31  72 SE12      30.21F WCI  32
STEPHENVILLE   CLEAR     40  32  74 S5        30.26S WCI  37
COMANCHE       CLEAR     46  37  70 S12       30.25R
BROWNWOOD      MOCLDY    32  30  93 CALM      30.26S
COLEMAN        CLEAR     41  36  83 S6        30.24R WCI  37
$$

TXZ143>147-156>162-174-175-281400-
CENTRAL TEXAS

CITY           SKY/WX    TMP DP  RH WIND       PRES   REMARKS
WACO           CLEAR     41  34  76 SW9       30.30S WCI  35
WACO-TSTC      CLEAR     37  32  81 S5        30.30  WCI  34
WACO-MCGREGOR  CLEAR     45  34  65 S8        30.31S
HILLSBORO      CLEAR     43  31  61 S7        30.28S WCI  39
CORSICANA      CLEAR     40  33  76 S8        30.31F WCI  34
MEXIA          CLEAR     38  33  81 S5        30.30F WCI  35
HEARNE         CLEAR     38  34  83 CALM      30.35R
CAMERON        CLEAR     41  35  79 CALM      30.32R
TEMPLE         CLEAR     37  28  70 S8        30.30R WCI  31
KILLEEN        MOCLDY    46  36  66 S8        30.29R
KILLEEN-SKYLRK PTCLDY    43  28  56 CALM      30.28S
FORT HOOD      PTCLDY    47  32  56 S3        30.29R
GATESVILLE     PTCLDY    39  32  75 CALM      30.31S
HAMILTON       CLEAR     42  35  75 S12       30.27S WCI  35
LAMPASAS       MOCLDY    50  47  87 CALM      30.26S
$$

TXZ095>097-106>112-122>126-135>138-148>153-164>167-281400-
EAST TEXAS

CITY           SKY/WX    TMP DP  RH WIND       PRES   REMARKS
PARIS          CLEAR     34  28  80 SE8       30.30S WCI  27
SULPHUR SPRNGS CLEAR     43  32  64 S8        30.31S WCI  38
MOUNT PLEASANT CLEAR     35  32  90 CALM      30.33F
MINEOLA        CLEAR     43  34  70 S6        30.31F WCI  39
TYLER          CLEAR     39  32  76 S7        30.31F WCI  34
LONGVIEW       CLEAR     36  32  85 S5        30.33F WCI  32
MARSHALL       CLEAR     36  33  90 CALM      30.37S
ATHENS         CLEAR     34  32  93 CALM      30.31S
PALESTINE      CLEAR     41  36  80 SE5       30.34S WCI  38
JACKSONVILLE   CLEAR     41  34  75 S12       30.34S WCI  34
HENDERSON      CLEAR     36  33  90 SE3       30.34F
NACOGDOCHES    CLEAR     36  32  87 SE5       30.36F WCI  32
LUFKIN         CLEAR     39  32  76 SE6       30.37S WCI  35
$$

SUPPLEMENTAL OBSERVATIONS (CENTRAL)

CITY           SKY/WX    TMP DP  RH WIND       PRES   REMARKS
LAKE TEXOMA      N/A     43  32  65 SE6         N/A  WCI  39
CADDO GRASSLND   N/A     39  30  70 S6          N/A  WCI  35
PAT MAYSE LAKE   N/A     37  30  75 E3          N/A
GREENVILLE       N/A     41  30  65 S8          N/A  WCI  36
CEDAR HILL       N/A     48  27  43 S8          N/A
PALESTINE        N/A     41  34  75 S3          N/A
LAKE LIMESTONE   N/A     39  34  81 S3          N/A
MCGREGOR         N/A     39  32  75 S5          N/A  WCI  36
TEMPLE           N/A     41  34  75 S6          N/A  WCI  37
$$

SUPPLEMENTAL OBSERVATIONS (WEST)

CITY           SKY/WX    TMP DP  RH WIND       PRES   REMARKS
MILLERS CREEK    N/A     36  27  69 SW7         N/A  WCI  30
POSSUM KINGDOM   N/A     43  32  65 S6          N/A  WCI  39
LBJ GRASSLAND    N/A     45  32  61 S9          N/A  WCI  40
GRANBURY         N/A     37  32  81 CALM        N/A
COMANCHE         N/A     46  34  61 S12         N/A
HAMBY            N/A     48  37  66 S15         N/A
IVIE RESERVOIR   N/A     41  36  81 SE3         N/A
COLORADO BEND    N/A     46  39  76 S7G15       N/A
$$

SUPPLEMENTAL OBSERVATIONS (EAST)

CITY           SKY/WX    TMP DP  RH WIND       PRES   REMARKS
CLARKSVILLE      N/A     34  32  93 E3          N/A
GILMER           N/A     37  32  81 S2          N/A
HENDERSON        N/A     36  32  87 S2          N/A
N SABINE NF      N/A     32  30  93 MISG        N/A
S SABINE NF      N/A     34  32  93 CALM        N/A
$$

SUPPLEMENTAL OBSERVATIONS ARE A COLLECTION OF AUTOMATED INSTRUMENTS
THAT ARE MAINTAINED BY A VARIETY OF FEDERAL AND STATE AGENCIES.
CERTAIN ELEMENTS...SUCH AS HUMIDITY VALUES AND SUSTAINED WIND
SPEEDS...MAY BE APPROXIMATED.